Regional Weather Roundup
Issued by NWS Mobile, AL

Home | Current Version | Previous Version | Text Only | Print | Product List | Glossary On
Versions: 1 2 3 4 5 6 7 8 9 10 11 12 13 14 15 16 17 18 19 20 21 22 23 24 25 26 27 28 29 30 31 32 33 34 35 36 37 38 39 40 41 42 43 44 45 46 47 48 49 50
000
ASUS44 KMOB 270510
RWRMOB
REGIONAL WEATHER ROUNDUP
NATIONAL WEATHER SERVICE MOBILE AL
1100 PM CST THU FEB 26 2015

NOTE: "FAIR" INDICATES FEW OR NO CLOUDS BELOW 12,000 FEET WITH NO
      SIGNIFICANT WEATHER AND/OR OBSTRUCTIONS TO VISIBILITY.

  * THESE STATIONS ARE PART OF THE UNIVERSITY OF SOUTH ALABAMA
    MESONET AND ARE NOT UNDER NWS OR FAA QUALITY CONTROL.

ALZ061>064-270600-
COASTAL ALABAMA

CITY           SKY/WX    TMP DP  RH WIND       PRES   REMARKS
MOBILE REG APT MOCLDY    38  29  70 N14       30.25R
BROOKLEY FIELD MOCLDY    43  30  60 N14       30.25R
USA CAMPUS*      N/A     39  32  75 VRB5      30.25R
DOG RIVER*     NOT AVBL


CITY           SKY/WX    TMP DP  RH WIND       PRES   REMARKS
MOUNT VERNON*    N/A     36  28  75 N5        30.27R
SARALAND*      NOT AVBL
BAY MINETTE*   NOT AVBL
LOXLEY*          N/A     37  32  81 N9        30.23R
ROBERTSDALE*     N/A     39  32  75 VRB3      30.24R
FAIRHOPE*        N/A     39  32  75 N12       30.23R
ELBERTA*         N/A     41  34  75 N7        30.22R
FOLEY*         NOT AVBL
GRAND BAY*       N/A     41  32  70 VRB13     30.22R
DAUPHIN ISLND* NOT AVBL
BON SCOUR NWR* NOT AVBL
GULF SHORES    MOCLDY    40  34  76 N7        30.23R

$$

ALZ051>060-270600-
INTERIOR SOUTHWEST AND SOUTH CENTRAL ALABAMA

CITY           SKY/WX    TMP DP  RH WIND       PRES   REMARKS
GREENVILLE     MOCLDY    33  28  81 N3        30.22R
EVERGREEN      MOCLDY    36  30  79 N5        30.24R
CASTLEBERRY*   NOT AVBL
ATMORE*          N/A     37  32  81 VRB9      30.25S
DIXIE*           N/A     34  32  93 CALM      30.19R
ANDALUSIA/OPP  MOCLDY    39  29  67 VRB3      30.22R
ANDALUSIA*       N/A     36  30  80 NE5       30.21R
FLORALA APT    MOCLDY    36  30  79 N6        30.23S
FLORALA*         N/A     36  32  87 N6        30.18S

$$

FLZ001>006-270600-
WESTERN FLORIDA PANHANDLE

CITY           SKY/WX    TMP DP  RH WIND       PRES   REMARKS
PENSACOLA      MOCLDY    40  35  83 NE9       30.22R
NAS PENSACOLA  MOCLDY    40  37  89 N9        30.23R
MILTON         PTCLDY    37  33  85 NE5       30.22S
WHTNG S FIELD  PTCLDY    40  32  73 N7        30.22S


CITY           SKY/WX    TMP DP  RH WIND       PRES   REMARKS
WALNUT HILL*   NOT AVBL
JAY*             N/A     37  32  81 N6        30.23S
DUKE FIELD     MOCLDY    37  32  85 N7        30.21R
CRESTVIEW      MOCLDY    37  32  82 N7        30.23S
VALPARAISO     MOCLDY    39  33  79 N10       30.21R
DESTIN         CLOUDY    41  33  73 N15G21    30.22R

$$

MSZ076-079-270600-
INTERIOR SOUTHEAST MISSISSIPPI

CITY           SKY/WX    TMP DP  RH WIND       PRES   REMARKS
LEAKESVILLE*     N/A     37  32  81 VRB2      30.27R
AGRICOLA*      NOT AVBL

$$

MARINE OBSERVATIONS

STATION/POSITION TIME  TEMP    WIND        PRES    WAVE
                       AIR SEA DIR/SP/G            HT/PER
                 (UTC) (F)     (DEG/KT/KT) (MB)    (FT/S)
PASCAGOULA       0500   44      10/ 12/ 16 1023.6R
PETIT BOIS ISLND 0500           20/ 18/ 22 1024.0R
GRAND BAY        0400   43     360/  6     1023.0S
KATRINA CUT      0400   45      30/ 17     1024.0R
CEDAR POINT      0400   42      10/  8     1023.4S
E DAUPHIN ISLAND 0354   47      10/ 21/ 23 1022.9R
MIDDLE BAY LIGHT 0400   45      20/ 24     1022.0R
USCG MOBILE BAY  0500   42 53  360/ 12/ 17 1023.0R
STATE DOCKS      0500   42 49              1023.7R
MEAHER PARK      0400   42     360/  7     1024.4R
WEEKS BAY        0400   40                   N/A
FORT MORGAN      0500           40/ 22/ 25 1023.1R
12 S ORANGE BCH  0500   48 62   20/ 17/ 23 1022.5R   2/ 7
PENSACOLA BAY    0500   43 53   30/  6/  9 1023.9R
64 S DAUPHIN ISL 0437   50 63   20/ 19/ 23 1022.8R   4/ 5
67 S FORT MORGAN 0400   51      30/ 19     1022.4R

$$

SELECTED LOCATIONS ACROSS THE REGION

CITY           SKY/WX    TMP DP  RH WIND       PRES   REMARKS
NEW ORLEANS    MOCLDY    43  34  70 N14       30.26S
GULFPORT       MOCLDY    41  32  70 N10       30.25R
PASCAGOULA AP  MOCLDY    42  32  67 MISG      30.24R
PASCAGOULA*    NOT AVBL
HATTIESBURG    CLEAR     35  30  82 N6        30.30S WCI  30
LAUREL         CLEAR     34  27  75 N8        30.30R WCI  27
MERIDIAN       PTCLDY    32  28  85 N7        30.30S WCI  26
JACKSON        CLOUDY    35  28  75 N14       30.34R WCI  26
MONTGOMERY     PTCLDY    33  28  81 NW3       30.25S
TROY           MOCLDY    34  29  82 N3        30.23R
KINSTON*       NOT AVBL
GENEVA*          N/A     37  32  81 N5        30.24R
ASHFORD*         N/A     36  30  80 NE5       30.21R
DOTHAN         CLOUDY    39  33  79 N10       30.23R
PANAMA CITY    CLOUDY    41  37  86 NW7       30.18R

$$




USA.gov is the U.S. government's official web portal to all federal, state and local government web resources and services.